Weather History for Glendive, MT

Change the Weather History Date:

Saturday, December 28, 2013

  Actual Average Record
Temperature  
Mean Temperature 20 °F -  
Max Temperature 41 °F 23 °F 57 °F (1999)
Min Temperature -2 °F 7 °F -7 °F (1996)
Degree Days  
Heating Degree Days 46    
Moisture  
Dew Point 5 °F    
Average Humidity 75    
Maximum Humidity 92    
Minimum Humidity 61    
Precipitation  
Precipitation 0.00 in - - ()
Sea Level Pressure  
Sea Level Pressure 30.19 in    
Wind  
Wind Speed 18 mph (NW)    
Max Wind Speed 45 mph    
Max Gust Speed 56 mph    
Visibility 9 miles    
Events      
Averages and records for this station are not official NWS values.
T = Trace of Precipitation, MM = Missing Value Source: NWS Daily Summary

Daily Weather History Graph

Daily Weather History Graph

Search for Another Location

Airport:

Trip Planner

Search our weather history database for the weather conditions in past years. The results will help you decide how hot, cold, wet, or windy it might be!

Date:

Astronomy

Dec. 28, 2013 Rise Set
Actual Time 7:45 AM MST 4:16 PM MST
Civil Twilight 7:09 AM MST 4:52 PM MST
Nautical Twilight 6:30 AM MST 5:31 PM MST
Astronomical Twilight 5:53 AM MST 6:08 PM MST
Moon 3:15 AM MST (12/28) 1:17 PM MST (12/28)
Length of Visible Light 9h 42m
Length of Day
8h 31m
Waning Crescent, 18% of the Moon is Illuminated
Dec 28
Waning Crescent
Jan 1
New
Jan 7
First Quarter
Jan 15
Full
Jan 23
Last Quarter

Hourly Weather History & Observations

Time (MST) Temp. Windchill Dew Point Humidity Pressure Visibility Wind Dir Wind Speed Gust Speed Precip Events Conditions
12:15 AM 32.0 °F 24.2 °F 26.6 °F 80% 29.75 in 10.0 mi South 9.2 mph - N/A   Clear
12:35 AM 32.0 °F 23.6 °F 26.6 °F 80% 29.75 in 10.0 mi South 10.4 mph - N/A   Clear
12:55 AM 30.2 °F 21.9 °F 26.6 °F 86% 29.75 in 10.0 mi South 9.2 mph - N/A   Partly Cloudy
1:15 AM 30.2 °F 21.9 °F 26.6 °F 86% 29.74 in 10.0 mi South 9.2 mph - N/A   Partly Cloudy
1:55 AM 33.8 °F 26.4 °F 26.6 °F 75% 29.74 in 10.0 mi South 9.2 mph - N/A   Mostly Cloudy
2:15 AM 32.0 °F 22.5 °F 26.6 °F 80% 29.74 in 10.0 mi South 12.7 mph - N/A   Partly Cloudy
2:35 AM 32.0 °F 24.8 °F 26.6 °F 80% 29.76 in 10.0 mi South 8.1 mph - N/A   Partly Cloudy
2:55 AM 32.0 °F 25.6 °F 26.6 °F 80% 29.74 in 10.0 mi SSE 6.9 mph - N/A   Mostly Cloudy
3:15 AM 32.0 °F 25.6 °F 28.4 °F 87% 29.75 in 10.0 mi South 6.9 mph - N/A   Overcast
3:35 AM 32.0 °F 28.7 °F 26.6 °F 80% 29.77 in 10.0 mi WSW 3.5 mph - N/A   Mostly Cloudy
3:55 AM 37.4 °F 28.2 °F 28.4 °F 70% 29.78 in 10.0 mi WNW 16.1 mph - N/A   Scattered Clouds
4:15 AM 41.0 °F 32.2 °F 28.4 °F 61% 29.79 in 10.0 mi WNW 18.4 mph 26.5 mph N/A   Clear
4:35 AM 41.0 °F 31.4 °F 28.4 °F 61% 29.80 in 10.0 mi WNW 21.9 mph 26.5 mph N/A   Clear
4:55 AM 39.2 °F 27.4 °F 28.4 °F 65% 29.80 in 10.0 mi WNW 29.9 mph 36.8 mph N/A   Clear
5:15 AM 37.4 °F 25.4 °F 30.2 °F 75% 29.82 in 10.0 mi WNW 27.6 mph 35.7 mph N/A   Partly Cloudy
5:35 AM 35.6 °F 22.3 °F 28.4 °F 75% 29.84 in 10.0 mi NW 31.1 mph 40.3 mph N/A   Clear
5:55 AM 32.0 °F 17.9 °F 26.6 °F 80% 29.87 in 10.0 mi WNW 28.8 mph 41.4 mph N/A   Mostly Cloudy
6:15 AM 28.4 °F 11.0 °F 23.0 °F 80% 29.88 in 10.0 mi WNW 39.1 mph 51.8 mph N/A   Mostly Cloudy
6:35 AM 26.6 °F 8.7 °F 21.2 °F 80% 29.89 in 10.0 mi WNW 38.0 mph 52.9 mph N/A   Mostly Cloudy
6:55 AM 24.8 °F 6.2 °F 19.4 °F 80% 29.92 in 7.0 mi WNW 38.0 mph 54.1 mph N/A   Overcast
7:15 AM 19.4 °F -2.2 °F 14.0 °F 80% 29.96 in 7.0 mi WNW 42.6 mph 54.1 mph N/A   Overcast
7:35 AM 17.6 °F -5.2 °F 10.4 °F 73% 29.97 in 9.0 mi NW 44.9 mph 55.2 mph N/A   Overcast
7:55 AM 15.8 °F -7.0 °F 6.8 °F 68% 29.96 in 5.0 mi NW 41.4 mph 52.9 mph N/A   Mostly Cloudy
8:15 AM 12.2 °F -12.8 °F 5.0 °F 73% 29.99 in 5.0 mi NW 44.9 mph 56.4 mph N/A   Scattered Clouds
8:35 AM 10.4 °F -13.2 °F 3.2 °F 73% 30.09 in 10.0 mi NNW 35.7 mph 52.9 mph N/A   Scattered Clouds
8:55 AM 8.6 °F -14.1 °F 1.4 °F 73% 30.16 in 7.0 mi NNW 29.9 mph 35.7 mph N/A   Mostly Cloudy
9:15 AM 8.6 °F -11.4 °F -0.4 °F 67% 30.23 in 10.0 mi NNW 21.9 mph 40.3 mph N/A   Overcast
9:35 AM 6.8 °F -15.5 °F -0.4 °F 72% 30.23 in 10.0 mi NNW 26.5 mph 36.8 mph N/A   Overcast
9:55 AM 6.8 °F -15.5 °F -0.4 °F 72% 30.25 in 7.0 mi NNW 26.5 mph 32.2 mph N/A   Overcast
10:15 AM 6.8 °F -15.5 °F -0.4 °F 72% 30.26 in 3.0 mi NW 26.5 mph 32.2 mph N/A   Mostly Cloudy
10:35 AM 5.0 °F -17.9 °F -2.2 °F 72% 30.29 in 3.0 mi NNW 26.5 mph 39.1 mph N/A   Mostly Cloudy
10:55 AM 5.0 °F -19.0 °F -0.4 °F 78% 30.30 in 2.5 mi NNW 29.9 mph 35.7 mph N/A   Mostly Cloudy
11:15 AM 5.0 °F -17.9 °F -4.0 °F 66% 30.30 in 10.0 mi NNW 26.5 mph 34.5 mph N/A   Overcast
11:35 AM 3.2 °F -19.5 °F -2.2 °F 78% 30.33 in 10.0 mi NNW 24.2 mph 32.2 mph N/A   Mostly Cloudy
11:55 AM 3.2 °F -19.0 °F -4.0 °F 72% 30.33 in 10.0 mi North 23.0 mph 31.1 mph N/A   Scattered Clouds
12:15 PM 5.0 °F -16.7 °F -2.2 °F 72% 30.33 in 10.0 mi North 23.0 mph 26.5 mph N/A   Partly Cloudy
12:35 PM 3.2 °F -19.5 °F -2.2 °F 78% 30.34 in 8.0 mi NW 24.2 mph 28.8 mph N/A   Scattered Clouds
12:55 PM 3.2 °F -18.1 °F -4.0 °F 72% 30.35 in 10.0 mi NNW 20.7 mph - N/A   Partly Cloudy
1:15 PM 3.2 °F -18.1 °F -5.8 °F 66% 30.36 in 10.0 mi NNW 20.7 mph - N/A   Scattered Clouds
1:35 PM 1.4 °F -21.0 °F -5.8 °F 72% 30.37 in 10.0 mi NW 21.9 mph - N/A   Partly Cloudy
1:55 PM 3.2 °F -19.5 °F -4.0 °F 72% 30.37 in 10.0 mi NNW 24.2 mph - N/A   Scattered Clouds
2:15 PM 1.4 °F -21.9 °F -5.8 °F 72% 30.38 in 10.0 mi NNW 24.2 mph - N/A   Partly Cloudy
2:35 PM 1.4 °F -20.5 °F -5.8 °F 72% 30.39 in 10.0 mi NW 20.7 mph 29.9 mph N/A   Mostly Cloudy
2:55 PM 1.4 °F -20.5 °F -5.8 °F 72% 30.39 in 10.0 mi NW 20.7 mph 26.5 mph N/A   Overcast
3:16 PM 1.4 °F -22.3 °F -7.6 °F 66% 30.41 in 10.0 mi NW 25.3 mph 29.9 mph N/A   Scattered Clouds
3:55 PM -0.4 °F -22.3 °F -7.6 °F 72% 30.44 in 10.0 mi NW 19.6 mph 26.5 mph N/A   Scattered Clouds
4:15 PM -0.4 °F -21.7 °F -5.8 °F 78% 30.45 in 10.0 mi NW 18.4 mph - N/A   Scattered Clouds
4:35 PM -0.4 °F -20.5 °F -5.8 °F 78% 30.46 in 10.0 mi NW 16.1 mph 21.9 mph N/A   Overcast
4:55 PM -0.4 °F -22.3 °F -7.6 °F 72% 30.44 in 10.0 mi NW 19.6 mph 25.3 mph N/A   Mostly Cloudy
5:15 PM -0.4 °F -22.8 °F -5.8 °F 78% 30.43 in 10.0 mi NNW 20.7 mph - N/A   Partly Cloudy
5:35 PM -2.2 °F -20.7 °F -7.6 °F 78% 30.45 in 10.0 mi NNW 12.7 mph - N/A   Clear
5:55 PM -2.2 °F -20.7 °F -9.4 °F 71% 30.46 in 10.0 mi NW 12.7 mph - N/A   Clear
6:15 PM -0.4 °F -19.9 °F -5.8 °F 78% 30.45 in 10.0 mi NW 15.0 mph - N/A   Mostly Cloudy
6:35 PM -0.4 °F -20.5 °F -7.6 °F 72% 30.45 in 10.0 mi NW 16.1 mph - N/A   Overcast
6:55 PM -0.4 °F -19.9 °F -7.6 °F 72% 30.46 in 10.0 mi NW 15.0 mph - N/A   Overcast
7:15 PM -0.4 °F -19.9 °F -7.6 °F 72% 30.47 in 10.0 mi NW 15.0 mph - N/A   Overcast
7:35 PM -0.4 °F -20.5 °F -7.6 °F 72% 30.47 in 10.0 mi NW 16.1 mph - N/A   Overcast
7:55 PM -0.4 °F -19.2 °F -5.8 °F 78% 30.48 in 10.0 mi NW 13.8 mph - N/A   Mostly Cloudy
8:15 PM -0.4 °F -18.4 °F -7.6 °F 72% 30.48 in 10.0 mi NW 12.7 mph - N/A   Partly Cloudy
8:35 PM -0.4 °F -13.4 °F -5.8 °F 78% 30.48 in 10.0 mi NW 6.9 mph - N/A   Scattered Clouds
8:55 PM -0.4 °F -12.0 °F -5.8 °F 78% 30.47 in 10.0 mi NW 5.8 mph - N/A   Scattered Clouds
9:15 PM 1.4 °F - -9.4 °F 61% 30.47 in 10.0 mi Calm Calm - N/A   Partly Cloudy
9:35 PM 1.4 °F - -4.0 °F 78% 30.47 in 10.0 mi Calm Calm - N/A   Clear
9:55 PM 1.4 °F - -4.0 °F 78% 30.47 in 10.0 mi Calm Calm - N/A   Clear
10:15 PM 1.4 °F - -5.8 °F 72% 30.47 in 10.0 mi Calm Calm - N/A   Clear
10:35 PM 1.4 °F - -2.2 °F 85% 30.46 in 10.0 mi Calm Calm - N/A   Partly Cloudy
10:55 PM -0.4 °F -13.4 °F -4.0 °F 85% 30.46 in 10.0 mi SSE 6.9 mph - N/A   Mostly Cloudy
11:15 PM -0.4 °F -8.3 °F -4.0 °F 85% 30.46 in 10.0 mi SSE 3.5 mph - N/A   Overcast
11:35 PM -0.4 °F -8.3 °F -2.2 °F 92% 30.46 in 10.0 mi SSE 3.5 mph - N/A   Mostly Cloudy